Location: Newark
(42.4040°N, 21.7420°E)
Time: 13:56:39
(UTC+00:00)

Hubble Space Telescope - Visible Passes

Search period start: 07 December 2019 00:00
Search period end: 17 December 2019 00:00
Orbit: 536 x 540 km, 28.5° (Epoch: 06 December)

Date Brightness Start Highest point End Pass type
(mag) Time Alt. Az. Time Alt. Az. Time Alt. Az.
14 Dec 3.8 05:21:13 10° S 05:21:45 10° S 05:22:16 10° SSE visible
15 Dec 3.6 05:09:52 10° S 05:11:00 11° S 05:12:07 10° SSE visible
16 Dec 3.5 04:58:51 10° SSW 05:00:15 11° S 05:01:37 10° SSE visible
